Weather History for KCUT - March, 2012

Change the Weather History Date:

Saturday, March 10, 2012

  Actual Average Record
Temperature  
Mean Temperature 47 °F 30 °F  
Max Temperature 64 °F 41 °F 65 °F (1989)
Min Temperature 29 °F 20 °F -21 °F (1948)
Degree Days  
Heating Degree Days 18 35  
Month to date heating degree days 328 358  
Since 1 July heating degree days 5938 6193  
Cooling Degree Days 0 0  
Month to date cooling degree days 0 0  
Year to date cooling degree days 0 0  
Moisture  
Dew Point 10 °F    
Average Humidity 29    
Maximum Humidity 51    
Minimum Humidity 7    
Precipitation  
Precipitation 0.00 in 0.03 in 0.64 in (1988)
Month to date precipitation T 0.22  
Year to date precipitation 0.20 1.08  
Sea Level Pressure  
Sea Level Pressure 29.83 in    
Wind  
Wind Speed 4 mph (West)    
Max Wind Speed 12 mph    
Max Gust Speed 16 mph    
Visibility 10 miles    
Events      
T = Trace of Precipitation, MM = Missing Value Source: NWS Daily Summary

Daily Weather History Graph

Daily Weather History Graph

Search for Another Location

Airport or City:

Trip Planner

Search our weather history database for the weather conditions in past years. The results will help you decide how hot, cold, wet, or windy it might be!

Date:

Astronomy

Mar. 10, 2012 Rise Set
Actual Time 6:14 AM MST 5:55 PM MST
Civil Twilight 5:46 AM MST 6:23 PM MST
Nautical Twilight 5:12 AM MST 6:57 PM MST
Astronomical Twilight 4:39 AM MST 7:30 PM MST
Moon 9:19 PM MST (3/10) 7:04 AM MST (3/10)
Length of Visible Light 12h 37m
Length of Day
11h 40m
Waning Gibbous, 92% of the Moon is Illuminated
Mar 10
Waning Gibbous
Mar 14
Last Quarter
Mar 22
New
Mar 30
First Quarter
Apr 6
Full

Hourly Weather History & Observations

Time (MST) Temp. Windchill Dew Point Humidity Pressure Visibility Wind Dir Wind Speed Gust Speed Precip Events Conditions
12:53 AM 39.9 °F 34.5 °F 17.1 °F 40% 29.96 in 10.0 mi West 8.1 mph - N/A   Clear
1:53 AM 36.0 °F 32.1 °F 16.0 °F 44% 29.96 in 10.0 mi West 4.6 mph - N/A   Clear
2:53 AM 33.1 °F 27.7 °F 14.0 °F 46% 29.95 in 10.0 mi West 5.8 mph - N/A   Clear
3:53 AM 35.1 °F 31.0 °F 10.9 °F 37% 29.93 in 10.0 mi West 4.6 mph - N/A   Clear
4:53 AM 33.1 °F - 5.0 °F 31% 29.94 in 10.0 mi Calm Calm - N/A   Clear
5:53 AM 32.0 °F - 3.9 °F 31% 29.96 in 10.0 mi Calm Calm - N/A   Clear
6:53 AM 32.0 °F 28.7 °F 6.1 °F 34% 29.95 in 10.0 mi NW 3.5 mph - N/A   Clear
7:53 AM 44.1 °F 42.5 °F 12.0 °F 27% 29.91 in 10.0 mi NNE 3.5 mph - N/A   Clear
8:53 AM 57.0 °F - 3.0 °F 11% 29.87 in 10.0 mi NE 5.8 mph - N/A   Clear
9:53 AM 59.0 °F - -2.0 °F 8% 29.86 in 10.0 mi ESE 5.8 mph - N/A   Clear
10:53 AM 62.1 °F - 3.9 °F 10% 29.82 in 10.0 mi Variable 5.8 mph - N/A   Clear
11:53 AM 63.0 °F - -2.9 °F 7% 29.81 in 10.0 mi Variable 5.8 mph - N/A   Clear
12:53 PM 64.0 °F - 1.0 °F 8% 29.78 in 10.0 mi WSW 6.9 mph - N/A   Clear
1:53 PM 63.0 °F - 8.1 °F 11% 29.77 in 10.0 mi SW 8.1 mph - N/A   Clear
2:53 PM 62.1 °F - 9.0 °F 12% 29.78 in 10.0 mi SW 8.1 mph - N/A   Clear
3:53 PM 60.1 °F - 10.9 °F 14% 29.77 in 10.0 mi Variable 4.6 mph - N/A   Clear
4:53 PM 59.0 °F - 15.1 °F 18% 29.78 in 10.0 mi Variable 4.6 mph - N/A   Clear
5:53 PM 53.1 °F - 15.1 °F 22% 29.80 in 10.0 mi Calm Calm - N/A   Clear
6:53 PM 48.0 °F - 16.0 °F 28% 29.81 in 10.0 mi Calm Calm - N/A   Clear
7:53 PM 39.9 °F - 16.0 °F 38% 29.79 in 10.0 mi Calm Calm - N/A   Clear
8:53 PM 36.0 °F - 17.1 °F 46% 29.74 in 10.0 mi Calm Calm - N/A   Clear
9:53 PM 34.0 °F - 17.1 °F 50% 29.73 in 10.0 mi Calm Calm - N/A   Clear
10:53 PM 34.0 °F - 17.1 °F 50% 29.70 in 10.0 mi Calm Calm - N/A   Clear
11:53 PM 42.1 °F 39.2 °F 12.9 °F 31% 29.66 in 10.0 mi SSW 4.6 mph - N/A   Clear